Location: Bannatyne
(13.0833°N, 59.5333°W)
Time: 20:24:55
(UTC+00:00)

Transit 2A - Pass Details

Date: 28 January 2020
Orbit: 599 x 959 km, 66.7° (Epoch: 25 February)

Event Time Altitude Azimuth Distance (km) Brightness Sun altitude
Rises 22:44:29 0° 231° (SW) 3,041 10.5 -11.8°
Reaches altitude 10° 22:47:33 10° 250° (WSW) 2,064 9.8 -12.5°
Maximum altitude 22:50:39 18° 293° (WNW) 1,565 8.3 -13.3°
Drops below altitude 10° 22:53:38 10° 336° (NNW) 1,971 8.2 -14.0°
Sets 22:56:29 0° 356° (N) 2,849 8.8 -14.6°
